Temperature
17 19 20 20 19 19 18 18 19 19 17 17 18 18 18 16 16 16 16 15 14 13 13 14 15 15 15 15 14 14 14 13 13 12 11 11 11 10 10 10 10 9 9 9
19 19 19 17 16 16 17 18 19 18 16 16 17 17 17 16 16 16 15 15 14 13 13 13 14 14 14 14 14 14 13 13 12 12 11 11 11 11 10 10 10 9 9 9
19 19 16 16 16 17 17 18 18 18 17 16 16 18 17 16 16 14 14 14 13 13 13 12 13 13 13 13 13 13 13 12 12 12 11 11 11 11 10 10 10 10 9 9
18 17 15 16 17 17 18 17 16 16 17 18 17 19 18 17 17 16 15 14 13 12 12 12 12 13 13 13 12 12 12 12 12 11 11 11 10 10 10 10 9 9 9 9
18 16 16 17 17 17 17 15 15 15 16 17 17 19 19 17 17 16 15 14 13 12 11 12 12 12 12 12 12 12 12 11 11 11 11 10 10 9 9 9 9 8 8 8
17 16 16 17 16 15 15 15 14 15 16 18 17 18 19 18 17 17 15 13 12 11 11 11 11 11 11 11 11 11 11 11 11 10 10 9 9 9 8 8 8 8 7 7
17 16 16 15 16 15 16 17 18 19 19 19 16 16 19 17 16 16 15 13 12 11 11 10 10 11 11 11 11 10 10 10 10 9 9 9 8 8 7 7 7 7 6 6
17 18 16 16 17 17 17 17 18 19 19 19 16 17 18 15 13 13 13 13 11 11 10 10 10 10 10 10 10 10 9 9 9 8 8 8 7 7 6 6 6 6 5 5
18 17 15 14 15 16 16 17 16 17 16 17 18 17 17 14 13 13 12 12 11 10 10 9 9 9 9 9 9 9 9 8 8 7 7 7 6 6 6 5 5 5 5 4
18 17 15 14 14 13 15 16 16 17 17 18 18 18 18 15 14 13 13 12 11 10 9 9 9 9 9 9 8 8 8 7 7 6 6 6 5 5 5 5 4 4 4 4
17 17 15 15 15 16 14 15 16 16 16 17 18 19 17 16 15 14 13 12 10 9 9 8 8 8 8 8 8 7 7 6 6 6 5 5 5 4 4 4 4 3 3 3
16 17 17 16 14 14 15 16 16 17 16 16 17 18 15 15 14 13 12 10 9 8 8 8 8 8 7 7 7 6 6 5 5 5 5 4 4 4 3 3 3 2 2 2
14 16 17 16 14 13 14 14 14 16 16 16 16 18 13 13 12 11 11 10 8 8 7 7 7 7 7 6 6 6 5 5 4 4 4 3 3 3 2 2 2 2 1 1
14 16 17 18 17 16 15 13 13 14 15 16 16 17 14 13 12 11 10 9 8 7 7 7 6 6 6 6 5 5 4 4 4 3 3 3 2 2 2 1 1 1 0 0
14 16 16 15 14 14 15 15 13 14 16 16 17 16 16 15 13 11 10 8 8 7 6 6 6 6 5 5 4 4 4 3 3 3 2 2 1 1 1 1 0 0 -0 -1
14 15 14 14 12 12 12 14 14 13 14 15 15 15 15 12 11 10 9 8 7 6 6 5 5 5 4 4 4 3 3 3 2 2 1 1 1 0 0 -0 -0 -1 -1 -1
13 14 14 15 11 12 13 14 14 13 13 13 13 14 12 10 9 9 8 7 6 6 5 5 4 4 4 3 3 2 2 2 2 1 1 0 0 -0 -1 -1 -1 -2 -2 -2
13 13 13 13 12 11 15 12 12 12 12 11 11 11 10 9 8 7 7 7 6 5 5 4 4 4 3 3 2 2 2 1 1 0 0 -0 -1 -1 -1 -2 -2 -2 -2 -3
11 13 12 12 13 14 14 11 11 11 11 11 10 10 8 7 7 7 6 5 5 5 4 4 3 3 3 2 2 1 1 1 0 -0 -1 -1 -1 -2 -2 -3 -3 -3 -3 -3
8 11 12 11 11 12 14 10 9 11 12 10 9 9 7 7 9 9 6 5 4 4 4 3 3 2 2 2 1 1 0 -0 -0 -1 -1 -1 -2 -2 -3 -3 -3 -3 -4 -4
9 10 11 11 11 13 12 9 9 11 13 9 8 7 7 7 8 6 5 4 4 3 3 3 2 2 2 1 0 0 -0 -1 -1 -1 -2 -2 -3 -3 -3 -4 -4 -4 -4 -5
10 10 10 11 10 11 9 8 10 11 8 7 7 6 6 5 5 5 4 4 3 3 3 2 2 1 1 1 -0 -0 -1 -1 -2 -2 -2 -3 -3 -4 -4 -4 -5 -5 -5 -5
10 11 11 11 12 9 7 8 7 7 7 6 6 5 5 5 4 4 3 3 3 2 2 1 1 1 1 0 -1 -1 -1 -2 -2 -3 -3 -4 -4 -4 -5 -5 -5 -5 -5 -6
8 7 9 8 9 7 6 6 6 6 6 6 6 5 5 4 3 3 3 2 2 2 1 1 0 -0 -0 -1 -1 -2 -2 -3 -3 -4 -4 -4 -4 -5 -5 -5 -6 -6 -6 -6
9 7 8 8 8 6 5 5 5 6 5 5 5 4 4 3 3 2 2 2 1 1 1 0 -0 -1 -1 -1 -2 -2 -3 -3 -4 -4 -4 -5 -5 -5 -6 -6 -6 -6 -6 -6
7 7 8 10 8 7 7 5 5 5 5 4 4 3 3 2 2 2 1 1 1 0 0 -0 -1 -1 -2 -2 -2 -2 -3 -4 -4 -5 -5 -5 -6 -6 -6 -6 -6 -6 -6 -6
Wind_Speed
1 5 7 6 6 5 5 6 8 6 2 4 5 5 2 2 6 8 9 10 11 12 12 13 14 13 13 11 10 8 6 4 3 3 3 4 5 6 7 9 12 14 15 15
4 8 5 1 3 4 6 8 8 4 1 3 5 4 2 5 7 7 8 9 10 11 12 13 13 13 13 12 10 8 6 4 3 2 2 2 4 5 6 7 10 12 14 15
9 2 4 4 5 6 7 8 6 5 3 3 4 4 6 6 6 6 6 7 8 9 11 11 12 13 12 12 10 7 6 4 2 1 1 2 3 4 5 6 7 9 12 14
7 3 4 6 6 7 6 4 5 4 5 3 2 3 8 9 9 7 7 7 8 8 9 10 10 11 11 10 8 8 7 5 3 1 1 3 4 5 6 6 7 9 10 12
5 4 5 6 5 7 2 2 2 4 4 4 4 5 6 9 11 11 9 8 8 7 8 9 9 9 9 8 7 7 7 6 4 2 2 3 5 6 7 7 9 9 9 10
4 2 4 3 1 3 4 3 2 2 3 4 3 5 5 8 12 12 11 9 8 8 7 8 7 7 8 7 7 6 6 6 5 4 3 4 6 8 9 10 10 9 8 8
5 4 3 3 4 4 4 4 4 4 4 2 2 5 4 3 4 9 12 11 9 7 7 6 6 6 6 7 6 6 6 6 5 5 5 6 7 8 10 10 10 10 9 9
6 5 7 6 5 5 5 4 4 4 3 2 3 5 1 4 3 4 8 10 8 7 5 5 5 4 4 5 5 5 6 6 6 6 6 7 8 7 8 10 10 11 10 11
7 4 3 2 1 3 4 4 2 3 2 5 5 4 3 4 5 7 8 9 8 6 5 4 4 3 3 4 5 5 5 6 7 7 8 8 9 9 10 11 12 11 11 12
6 4 4 3 4 2 2 4 4 4 4 5 5 6 5 9 9 8 9 9 7 5 5 4 3 2 2 3 4 5 6 7 7 8 8 8 10 11 12 12 13 14 14 14
6 5 4 4 7 7 6 5 5 3 4 4 5 3 2 7 9 9 9 8 7 5 4 3 2 1 2 3 4 6 7 8 8 9 10 11 12 12 13 13 14 14 15 15
5 5 5 4 1 2 5 6 8 6 5 5 5 5 5 5 5 6 8 7 5 5 3 2 1 1 3 4 6 7 8 9 10 10 12 13 13 13 14 15 15 16 16 16
8 6 4 4 4 4 5 5 7 5 4 7 7 6 5 5 5 5 7 7 5 5 3 1 1 2 4 6 7 8 9 10 11 12 13 14 15 15 16 16 17 17 17 18
6 6 8 7 1 6 6 8 10 10 8 10 13 14 6 7 7 6 6 6 6 4 2 1 3 4 6 7 8 9 11 11 12 13 14 15 16 16 17 17 17 17 18 18
5 6 7 7 3 4 8 11 13 16 16 14 15 16 13 9 9 7 6 6 6 3 1 3 4 6 7 8 9 11 12 13 13 14 15 16 17 17 17 17 18 18 18 18
5 5 3 5 3 5 9 16 17 18 19 21 21 19 8 2 5 6 6 6 6 4 3 4 6 7 9 10 11 12 13 14 14 15 16 17 17 17 17 18 18 19 19 19
7 7 5 5 1 4 11 13 15 11 11 12 14 9 5 5 6 6 6 6 5 4 4 6 7 8 9 11 12 13 14 15 15 16 17 17 17 18 18 19 19 20 20 20
7 7 4 3 2 9 5 2 4 8 9 10 7 4 6 5 3 3 4 5 4 4 5 7 8 9 10 12 13 14 14 15 16 17 17 17 18 19 19 19 20 20 19 19
3 7 5 4 6 10 6 3 5 6 6 8 9 7 6 4 2 4 4 3 3 5 6 7 8 10 12 13 14 14 16 16 17 17 18 18 19 19 20 20 21 20 19 19
2 4 6 5 6 8 2 4 3 3 6 6 8 9 7 5 4 3 4 2 4 5 6 8 9 11 13 14 14 15 17 18 18 18 19 19 19 20 20 21 21 19 19 19
6 6 9 11 9 9 1 5 6 5 2 7 8 8 8 6 3 0 1 3 5 6 8 9 10 12 13 14 15 16 18 19 19 19 19 19 19 20 20 20 19 19 18 19
9 9 9 8 9 9 5 8 7 2 4 6 6 6 6 4 1 2 3 5 6 7 9 10 11 13 14 15 16 18 19 19 19 19 20 20 20 19 17 19 19 19 19 19
8 7 6 9 6 2 5 4 1 3 4 4 5 5 5 4 4 4 5 6 8 9 10 11 13 15 15 16 16 19 19 19 19 20 20 20 20 19 18 18 19 18 16 15
6 3 4 6 6 4 4 4 3 3 4 4 4 4 4 4 4 5 6 8 9 10 12 13 14 16 17 17 17 18 19 19 19 20 20 19 19 19 18 16 15 15 15 15
5 7 6 7 4 3 5 6 5 4 4 5 4 3 3 4 5 6 7 9 10 11 12 13 14 16 18 19 19 19 18 18 19 20 19 19 17 18 17 16 15 16 16 16
6 8 8 6 5 5 4 6 7 6 6 5 4 3 3 4 6 7 8 10 11 13 14 14 16 17 19 19 20 19 18 18 18 18 17 15 15 15 15 16 17 18 19 24
Wind_Direction
143 237 251 260 251 274 270 269 281 288 327 297 280 283 289 130 139 122 105 91 79 71 64 58 57 60 66 69 74 82 96 116 146 168 202 228 243 249 250 251 255 255 254 253
229 250 265 216 183 214 238 263 275 274 217 287 291 278 157 147 144 127 113 100 91 85 73 63 61 61 62 64 66 72 80 97 129 170 209 246 268 272 271 265 263 260 258 256
243 257 132 168 191 218 239 252 272 287 303 227 278 190 160 151 145 133 120 108 99 89 82 73 66 63 62 59 58 62 68 77 91 155 227 261 269 274 271 273 271 268 264 260
243 226 193 218 230 230 258 242 248 264 286 256 268 219 176 172 171 164 147 129 113 102 92 82 74 66 60 58 59 62 65 68 70 96 270 281 287 293 299 298 289 285 274 266
224 196 201 224 235 211 242 98 210 254 258 259 222 238 178 176 188 183 166 147 130 116 102 90 80 75 67 62 60 60 62 60 55 40 338 301 297 300 302 301 295 294 286 275
246 205 229 230 105 166 141 138 137 190 226 238 201 230 200 186 200 186 171 157 145 130 115 101 94 88 76 66 59 54 53 47 36 18 347 319 311 308 307 306 304 301 296 288
221 213 201 180 163 159 195 242 257 231 221 226 142 240 239 150 185 188 175 163 152 141 131 117 106 91 76 61 51 45 39 31 18 3 344 327 315 308 304 306 305 302 298 295
219 211 190 196 216 201 199 240 269 284 280 282 201 238 177 110 133 164 167 160 153 150 140 126 110 95 76 57 42 33 24 12 0 348 336 325 318 309 305 303 301 297 295 294
216 202 119 148 178 199 180 205 303 279 284 272 243 243 231 152 155 157 160 161 161 158 151 137 120 99 72 47 28 14 3 355 347 337 327 321 318 311 307 303 299 295 293 294
211 199 162 140 141 56 299 156 170 220 259 264 257 243 218 182 178 169 170 172 168 162 157 146 129 96 56 27 6 355 347 338 330 326 322 315 312 310 306 302 299 297 296 295
202 209 169 185 211 204 165 181 206 217 258 266 274 256 143 178 175 179 179 176 170 166 163 157 136 80 22 356 346 341 335 328 325 322 319 314 313 310 306 302 300 299 297 296
186 212 213 198 110 323 225 214 198 225 229 232 270 272 114 164 167 181 177 171 166 160 154 151 130 8 343 339 337 333 329 324 322 318 314 311 309 307 305 303 303 301 298 296
161 192 204 189 185 191 216 211 213 226 240 228 244 254 125 159 168 177 178 173 167 161 155 158 330 330 330 330 329 326 324 321 318 315 311 309 308 307 306 305 304 302 299 297
174 205 231 253 237 174 201 203 201 206 230 242 241 258 216 202 201 189 183 182 177 172 176 305 323 325 326 324 323 321 320 319 316 313 310 308 308 307 305 304 303 301 299 297
196 229 236 258 252 216 236 230 211 219 237 251 262 266 266 241 221 209 194 185 187 197 243 308 318 319 319 320 319 320 317 316 314 311 308 307 307 306 304 303 302 301 300 297
199 220 209 245 232 242 257 251 239 238 246 251 263 271 281 212 197 195 193 190 202 226 271 301 309 312 315 317 317 316 314 314 312 308 307 307 306 305 304 303 303 302 300 298
184 183 201 251 219 277 261 252 233 224 226 237 249 256 173 174 185 195 197 198 216 251 283 296 304 308 311 313 314 311 311 311 309 306 305 306 306 305 304 304 303 302 301 300
178 179 209 240 221 242 255 93 205 217 234 227 230 200 179 181 181 210 205 207 233 271 288 298 305 307 308 310 309 308 307 306 305 305 305 306 307 305 305 304 303 303 302 300
202 182 190 208 246 267 267 201 186 208 246 213 208 194 167 143 190 215 194 217 268 288 294 300 303 305 306 307 309 308 306 305 305 305 307 308 307 306 305 304 304 304 303 301
127 211 211 206 229 251 253 134 159 193 247 188 187 181 170 172 234 234 174 244 286 295 297 302 305 305 305 308 310 307 305 306 306 307 307 306 305 304 303 303 303 302 301 299
164 191 213 222 236 261 200 142 163 215 282 153 176 177 180 202 247 26 221 280 291 295 300 304 305 304 306 309 310 305 305 306 308 308 306 305 304 303 302 302 301 302 301 299
184 184 198 202 218 244 149 160 200 235 108 155 171 178 191 208 221 247 272 286 292 297 302 306 306 305 307 309 308 306 306 309 310 308 305 304 304 303 301 301 302 302 301 300
211 207 201 203 216 64 159 191 146 129 159 168 176 182 187 206 237 261 278 287 293 297 301 304 304 305 307 308 309 306 307 310 309 307 305 305 304 303 302 301 302 302 301 299
210 201 209 233 242 217 202 196 181 172 169 163 168 172 188 223 249 269 282 289 295 299 302 305 306 305 306 309 309 305 307 309 307 305 305 305 305 304 303 301 299 298 298 298
189 177 206 234 235 209 210 202 184 166 155 152 155 178 203 233 262 278 288 293 297 300 302 304 303 302 304 307 307 307 308 309 306 305 304 305 304 302 303 301 298 296 293 292
188 191 200 230 198 198 195 182 176 171 172 171 173 198 233 255 273 284 290 294 298 299 302 302 301 302 304 307 307 308 309 308 305 305 305 304 304 303 302 302 301 293 290 295
Height
1547 1546 1542 1541 1543 1543 1544 1544 1542 1540 1542 1542 1538 1537 1537 1539 1540 1540 1540 1540 1539 1538 1537 1535 1533 1532 1531 1531 1530 1531 1531 1531 1532 1532 1533 1533 1534 1534 1533 1533 1532 1531 1530 1529
1545 1542 1541 1544 1546 1547 1545 1544 1539 1539 1543 1542 1538 1536 1536 1538 1539 1540 1541 1541 1541 1540 1539 1537 1536 1535 1534 1533 1533 1533 1533 1533 1533 1533 1533 1533 1533 1532 1531 1530 1529 1527 1526 1524
1540 1541 1544 1544 1545 1545 1543 1541 1538 1540 1540 1541 1539 1533 1535 1538 1540 1541 1541 1542 1542 1541 1540 1539 1538 1537 1536 1536 1535 1535 1534 1534 1534 1533 1533 1532 1531 1530 1528 1527 1525 1523 1521 1519
1539 1541 1544 1543 1541 1541 1539 1539 1541 1543 1539 1532 1537 1529 1530 1533 1537 1539 1540 1541 1542 1542 1541 1540 1539 1538 1538 1537 1537 1536 1535 1535 1534 1533 1532 1531 1529 1528 1526 1524 1521 1519 1517 1514
1536 1540 1541 1540 1538 1539 1538 1542 1542 1542 1539 1535 1535 1529 1523 1531 1532 1535 1538 1540 1541 1541 1541 1540 1540 1539 1539 1538 1538 1537 1536 1535 1534 1532 1531 1529 1527 1525 1523 1520 1517 1514 1512 1509
1536 1539 1538 1537 1539 1540 1542 1542 1543 1542 1537 1532 1530 1529 1521 1524 1525 1530 1535 1539 1540 1541 1541 1540 1540 1540 1539 1539 1538 1537 1536 1534 1532 1531 1529 1527 1524 1521 1518 1516 1512 1509 1506 1503
1535 1536 1537 1538 1538 1540 1540 1537 1533 1530 1529 1524 1534 1532 1520 1522 1525 1528 1532 1536 1538 1539 1540 1540 1539 1539 1538 1538 1537 1536 1534 1532 1530 1528 1526 1523 1520 1517 1514 1511 1507 1504 1500 1497
1531 1530 1533 1534 1533 1533 1535 1534 1533 1532 1526 1523 1533 1527 1518 1525 1528 1530 1532 1534 1537 1538 1538 1538 1538 1538 1537 1536 1535 1534 1532 1530 1528 1525 1522 1520 1516 1513 1510 1506 1502 1498 1494 1491
1526 1528 1534 1534 1535 1533 1534 1533 1534 1532 1536 1532 1520 1520 1520 1526 1527 1529 1531 1533 1535 1536 1536 1536 1536 1536 1535 1534 1533 1532 1529 1527 1524 1522 1518 1515 1512 1508 1504 1500 1496 1492 1488 1484
1521 1526 1531 1535 1536 1537 1535 1532 1536 1534 1532 1528 1518 1516 1512 1519 1522 1526 1529 1531 1533 1534 1534 1535 1534 1534 1533 1532 1531 1529 1526 1524 1521 1517 1514 1511 1507 1503 1499 1494 1490 1485 1481 1476
1522 1524 1531 1533 1532 1528 1536 1536 1532 1530 1530 1527 1523 1512 1511 1513 1518 1522 1526 1528 1530 1531 1532 1532 1532 1531 1531 1529 1528 1525 1522 1519 1516 1513 1509 1505 1501 1497 1492 1488 1483 1478 1473 1468
1522 1521 1522 1526 1531 1532 1528 1527 1528 1529 1527 1528 1522 1515 1515 1516 1519 1522 1524 1527 1528 1529 1530 1530 1530 1529 1528 1526 1524 1521 1518 1515 1512 1508 1504 1500 1495 1490 1486 1481 1476 1470 1465 1460
1521 1521 1523 1525 1531 1532 1529 1529 1528 1526 1526 1525 1524 1512 1518 1518 1519 1521 1523 1525 1526 1527 1528 1528 1527 1526 1525 1523 1520 1517 1514 1511 1507 1503 1498 1493 1489 1484 1478 1473 1468 1462 1457 1451
1518 1516 1516 1515 1513 1517 1523 1526 1527 1525 1522 1517 1513 1505 1513 1516 1517 1520 1522 1523 1524 1525 1525 1525 1524 1523 1521 1519 1516 1513 1510 1506 1501 1497 1492 1487 1482 1476 1471 1465 1459 1454 1448 1442
1517 1515 1514 1514 1518 1519 1517 1517 1521 1519 1511 1510 1501 1502 1503 1508 1514 1517 1519 1520 1522 1522 1522 1522 1521 1520 1517 1515 1512 1508 1504 1500 1496 1490 1485 1480 1474 1469 1463 1457 1451 1446 1440 1434
1515 1515 1517 1517 1520 1521 1519 1512 1511 1512 1509 1505 1503 1502 1503 1509 1512 1514 1516 1518 1519 1520 1519 1519 1517 1515 1513 1510 1507 1503 1499 1494 1489 1484 1478 1473 1467 1461 1455 1449 1443 1437 1431 1425
1513 1514 1516 1512 1521 1518 1510 1499 1501 1505 1503 1503 1502 1501 1506 1509 1511 1512 1514 1515 1516 1516 1516 1515 1513 1511 1509 1506 1502 1498 1493 1488 1483 1477 1471 1466 1460 1454 1448 1441 1435 1429 1422 1416
1511 1512 1513 1515 1519 1520 1495 1500 1499 1500 1501 1502 1502 1504 1506 1508 1510 1511 1512 1513 1514 1513 1513 1511 1509 1507 1504 1501 1496 1492 1487 1482 1476 1470 1464 1459 1452 1446 1440 1433 1427 1421 1414 1408
1511 1510 1512 1516 1510 1500 1495 1498 1500 1500 1497 1498 1500 1503 1506 1508 1509 1509 1509 1510 1511 1510 1509 1507 1505 1502 1499 1495 1491 1486 1480 1475 1470 1464 1458 1452 1445 1438 1432 1425 1419 1413 1406 1399
1514 1511 1510 1514 1514 1506 1491 1498 1499 1500 1495 1496 1498 1501 1504 1506 1506 1505 1507 1507 1507 1506 1505 1503 1500 1497 1494 1490 1485 1479 1474 1469 1463 1457 1450 1444 1438 1431 1424 1417 1411 1404 1398 1391
1511 1511 1509 1507 1506 1492 1492 1497 1500 1499 1490 1495 1497 1499 1502 1503 1504 1505 1504 1504 1503 1502 1501 1498 1495 1492 1488 1484 1478 1473 1467 1462 1456 1449 1442 1436 1430 1423 1416 1409 1403 1396 1389 1383
1497 1500 1502 1501 1504 1496 1494 1495 1494 1491 1493 1494 1496 1498 1500 1501 1501 1501 1501 1501 1500 1498 1496 1493 1490 1486 1482 1477 1472 1466 1460 1454 1448 1441 1434 1428 1422 1415 1408 1401 1395 1388 1382 1375
1493 1490 1489 1490 1488 1489 1490 1491 1491 1492 1493 1494 1495 1497 1498 1498 1499 1499 1498 1497 1496 1494 1491 1488 1484 1480 1475 1471 1466 1459 1452 1446 1439 1433 1426 1420 1413 1407 1401 1394 1387 1381 1375 1368
1490 1492 1491 1490 1486 1488 1489 1489 1490 1491 1492 1492 1494 1495 1496 1496 1496 1496 1495 1493 1491 1489 1486 1482 1478 1473 1468 1464 1458 1452 1445 1439 1432 1425 1418 1412 1405 1398 1392 1387 1380 1374 1368 1362
1482 1488 1487 1485 1485 1487 1486 1487 1488 1489 1490 1491 1492 1493 1493 1493 1493 1492 1491 1489 1486 1483 1480 1476 1471 1466 1460 1455 1450 1444 1438 1431 1424 1417 1411 1404 1398 1391 1384 1378 1373 1367 1361 1356
1480 1481 1481 1477 1479 1481 1482 1483 1485 1486 1488 1489 1490 1490 1490 1490 1489 1488 1486 1484 1481 1477 1473 1469 1464 1459 1453 1448 1442 1436 1430 1424 1417 1410 1403 1397 1390 1384 1377 1370 1363 1358 1354 1347